This demonstration page uses our WeatherBlox Daily Observations layout. Learn more.

Left ArrowRight Arrow

Hourly Observations for March 9, 2019

Temp ( °F °C ) Dew Point ( °F °C ) Humidity (%) Winds ( mph kmh ) Pressure ( in mb ) Visibility ( mi km ) Precip ( " mm )
12:34 am 00:34 Cloudy with Mist and Fog 34 1.1 31 -0.6 89 89 SE 15 24 29.84 1010 3 5 0.00 0.00
12:41 am 00:41 Cloudy with Mist and Fog 34 1.1 31 -0.6 89 89 SE 17 28 29.83 1010 3 4 0.00 0.00
12:52 am 00:52 Cloudy with Drizzle 34 1.1 31 -0.6 89 89 SE 15 24 29.80 1009 3 4 0.00 0.03
1:35 am 01:35 Cloudy with Drizzle 34 1.1 31 -0.6 89 89 ESE 15 24 29.79 1009 3 4 0.00 0.03
1:52 am 01:52 Cloudy with Drizzle 34 1.1 31 -0.6 89 89 ESE 18 30 29.74 1007 3 4 0.00 0.03
2:52 am 02:52 Cloudy with Drizzle 35 1.7 32 0 89 89 SE 17 28 29.67 1005 3 5 0.00 0.03
3:52 am 03:52 Cloudy with Drizzle 35 1.7 33 0.6 93 93 SE 15 24 29.63 1003 4 6 0.00 0.03
4:03 am 04:03 Cloudy with Drizzle 36 2.2 33 0.6 89 89 SE 16 26 29.64 1004 4 6 0.00 0.03
4:17 am 04:17 Cloudy with Drizzle 36 2.2 33 0.6 89 89 SE 20 31 29.62 1003 3 4 0.02 0.51
4:52 am 04:52 Cloudy with Rain 36 2.2 33 0.6 89 89 SE 17 28 29.58 1002 3 4 0.08 2.03
5:52 am 05:52 Cloudy with Light Rain 36 2.2 33 0.6 89 89 SE 17 28 29.51 999 3 4 0.12 3.05
6:01 am 06:01 Cloudy with Light Rain 36 2.2 33 0.6 89 89 ESE 17 28 29.52 1000 3 5 0.01 0.25
6:52 am 06:52 Cloudy with Light Rain 36 2.2 33 0.6 89 89 SE 18 30 29.48 998 8 13 0.06 1.52
7:52 am 07:52 Cloudy with Light Rain 37 2.8 34 1.1 89 89 SSE 14 22 29.45 997 5 8 0.05 1.27
8:52 am 08:52 Cloudy with Light Rain 37 2.8 34 1.1 89 89 SE 12 19 29.41 996 5 8 0.06 1.52
9:52 am 09:52 Cloudy with Mist and Fog 37 2.8 34 1.1 89 89 SSE 10 17 29.39 995 5 8 0.05 1.27
10:52 am 10:52 Cloudy with Light Rain 37 2.8 35 1.7 93 93 Calm 29.36 994 5 8 0.02 0.51
11:13 am 11:13 Cloudy with Light Rain 35 1.7 33 0.6 93 93 NW 7 11 29.39 995 1 2 0.01 0.25
11:52 am 11:52 Cloudy with Rain 36 2.2 34 1.1 93 93 NW 9 15 29.39 995 1 2 0.08 2.03
12:40 pm 12:40 Cloudy with Light Rain 36 2.2 34 1.1 93 93 N 13 20 29.41 996 3 5 0.02 0.51
12:50 pm 12:50 Cloudy with Light Rain 36 2 34 1 93 93 N 13 20 29.41 996 4 6 0.02 0.51
12:52 pm 12:52 Cloudy with Light Rain 36 2.2 33 0.6 89 89 N 14 22 29.39 995 4 6 0.02 0.51
1:52 pm 13:52 Cloudy 36 2.2 33 0.6 89 89 NW 18 30 29.40 996 10 16 0.00 0.03
2:28 pm 14:28 Cloudy with Light Rain 36 2.2 32 0 86 86 NW 14 22 29.44 997 4 6 0.00 0.03
2:44 pm 14:44 Cloudy with Light Rain 36 2.2 32 0 86 86 NW 20 31 29.46 998 10 16 0.00 0.03
2:52 pm 14:52 Cloudy 36 2.2 32 0 86 86 NW 17 28 29.43 997 10 16 0.00 0.03
3:52 pm 15:52 Cloudy 36 2.2 30 -1.1 79 79 NW 26 43 29.50 999 10 16 0.00 0.00
4:52 pm 16:52 Cloudy 36 2.2 28 -2.2 73 73 NW 31 50 29.54 1001 10 16 0.00 0.00
5:52 pm 17:52 Cloudy 35 1.7 27 -2.8 72 72 WNW 21 33 29.61 1003 10 16 0.00 0.00
6:52 pm 18:52 Cloudy 35 1.7 26 -3.3 70 70 WNW 24 39 29.66 1004 10 16 0.00 0.00
7:52 pm 19:52 Cloudy 33 0.6 25 -3.9 72 72 WNW 26 43 29.72 1006 10 16 0.00 0.00
8:52 pm 20:52 Cloudy 32 0 24 -4.4 73 73 WNW 24 39 29.75 1008 10 16 0.00 0.00
9:52 pm 21:52 Cloudy 32 0 23 -5 69 69 NW 26 43 29.81 1010 10 16 0.00 0.00
10:52 pm 22:52 Cloudy 31 -0.6 23 -5 72 72 WNW 21 33 29.87 1012 10 16 0.00 0.00
11:52 pm 23:52 Cloudy 30 -1.1 22 -5.6 72 72 NW 26 43 29.90 1012 10 16 0.00 0.00

Powered by AerisWeather